Location: Auckland
(36.8670°S, 174.7670°E)
Time: 17:19:30
(UTC+13:00)

ADEOS Rocket - Pass Details

Date: 24 January 2019
Orbit: 859 x 1307 km, 98.7° (Epoch: 21 February)

Event Time Altitude Azimuth Distance (km) Brightness Sun altitude
Exits shadow 21:18:52 10° 59° (ENE) 2,596 4.5 -8.0°
Reaches altitude 10° 21:19:00 10° 60° (ENE) 2,558 4.5 -8.0°
Maximum altitude 21:23:30 25° 113° (ESE) 1,680 4.0 -8.8°
Drops below altitude 10° 21:27:56 10° 167° (SSE) 2,526 5.4 -9.5°
Sets 21:30:41 0° 179° (S) 3,479 6.4 -10.0°
